Regional Weather Roundup
Issued by NWS

Home | Current Version | Previous Version | Graphics & Text | Print | Product List | Glossary On
Versions: 1 2 3 4 5 6 7 8 9 10 11 12 13 14 15 16 17 18 19 20 21 22 23 24 25 26 27 28 29 30 31 32 33 34 35 36 37 38 39 40 41 42 43 44 45 46 47 48 49 50
000
ASUS43 KFSD 270302
RWRSD

WEATHER ROUNDUP FOR SOUTH DAKOTA
NATIONAL WEATHER SERVICE SIOUX FALLS SD
1000 PM CDT SUN APR 26 2015

NOTE: "FAIR" INDICATES FEW OR NO CLOUDS BELOW 12,000 FEET WITH NO
SIGNIFICANT WEATHER AND/OR OBSTRUCTIONS TO VISIBILITY.


SDZ001>005-009-010-012>017-270400-
NORTHWEST AND NORTH CENTRAL SOUTH DAKOTA

CITY           SKY/WX    TMP DP  RH WIND       PRES   REMARKS
BUFFALO          N/A     45  44  97 NE14      30.07R
FAITH            N/A     53  38  56 E7        30.10R
MOBRIDGE       CLOUDY    56  34  43 E7        30.08R
$$

SDZ012>016-024>037-041>051-057-063-072>074-270400-
SOUTHWEST AND SOUTH CENTRAL SOUTH DAKOTA

CITY           SKY/WX    TMP DP  RH WIND       PRES   REMARKS
RAPID CTY ARPT CLOUDY    47  44  90 W3        30.11R
PIERRE         CLOUDY    53  32  44 E5        30.09R
CUSTER         LGT RAIN  40  38  93 NE5       30.12R
ELLSWORTH AFB  CLOUDY    48  45  91 NW5       30.10R
PHILIP         CLOUDY    53  37  54 CALM      30.09R
PINE RIDGE     CLOUDY    43  38  82 NE6       30.10R
WINNER         FAIR      52  31  44 SE7       30.09R
$$

SDZ004>011-016>023-039-040-270400-
NORTHEAST SOUTH DAKOTA

CITY           SKY/WX    TMP DP  RH WIND       PRES   REMARKS
ABERDEEN       PTCLDY    53  32  44 E8        30.12R
WATERTOWN      CLEAR     51  25  36 E7        30.13R
BROOKINGS      CLEAR     52  30  43 NE7       30.12R
SISSETON         N/A     50  27  40 SE5       30.12R
$$

SDZ017-020-022-023-036>040-048>070-270400-
SOUTHEAST SOUTH DAKOTA

CITY           SKY/WX    TMP DP  RH WIND       PRES   REMARKS
SIOUX FALLS    CLEAR     50  35  56 NE7       30.09R
HURON          PTCLDY    52  32  46 E9        30.09R
MITCHELL       PTCLDY    51  39  63 E7        30.09R
YANKTON        CLEAR     57  28  33 NE7       30.06R
$$

ABBREVIATIONS USED IN REMARKS
   TC - TEMPERATURE IN CELSIUS
  WCI - WIND CHILL INDEX
   HX - HEAT INDEX
  VSB - VISIBILITY



USA.gov is the U.S. government's official web portal to all federal, state and local government web resources and services.